Visibility
15.0 14.5 15.0 15.0 15.0 15.0 15.0 15.0 15.0 0.1 0.1 13.3 10.3 10.7 15.0 7.5 11.3 15.0 15.0 15.0 15.0 15.0 15.0 15.0 15.0 15.0 12.5 12.7 12.4 15.0 15.0 15.0 15.0 15.0 15.0 15.0 15.0 15.0
15.0 15.0 15.0 15.0 15.0 15.0 15.0 15.0 15.0 15.0 15.0 15.0 7.8 10.4 7.8 4.9 7.6 6.3 13.9 15.0 15.0 15.0 15.0 15.0 15.0 15.0 15.0 15.0 15.0 15.0 15.0 15.0 15.0 15.0 15.0 15.0 15.0 15.0
15.0 15.0 15.0 15.0 15.0 15.0 13.0 15.0 14.9 14.2 15.0 4.4 13.6 15.0 11.7 15.0 8.3 15.0 15.0 13.9 15.0 15.0 15.0 15.0 15.0 15.0 15.0 15.0 15.0 15.0 15.0 15.0 15.0 15.0 15.0 15.0 15.0 15.0
15.0 15.0 15.0 15.0 15.0 15.0 15.0 15.0 15.0 15.0 15.0 7.6 15.0 15.0 15.0 15.0 15.0 15.0 15.0 15.0 15.0 15.0 15.0 15.0 15.0 15.0 15.0 15.0 15.0 15.0 15.0 15.0 15.0 15.0 15.0 15.0 15.0 15.0
15.0 15.0 15.0 15.0 15.0 15.0 15.0 15.0 15.0 14.9 13.0 15.0 14.9 15.0 14.8 9.9 15.0 15.0 15.0 15.0 15.0 15.0 15.0 15.0 15.0 15.0 15.0 15.0 15.0 15.0 15.0 15.0 15.0 15.0 15.0 15.0 15.0 15.0
13.1 15.0 15.0 15.0 15.0 15.0 15.0 15.0 15.0 14.8 12.1 14.7 4.6 12.2 15.0 14.4 15.0 15.0 15.0 15.0 15.0 15.0 15.0 15.0 15.0 15.0 15.0 15.0 15.0 15.0 15.0 15.0 15.0 15.0 15.0 15.0 15.0 15.0
14.7 15.0 15.0 15.0 11.5 15.0 10.6 10.9 13.0 15.0 15.0 15.0 14.6 15.0 15.0 15.0 15.0 15.0 15.0 15.0 15.0 15.0 15.0 15.0 15.0 15.0 15.0 15.0 15.0 15.0 15.0 15.0 15.0 15.0 15.0 15.0 15.0 15.0
15.0 15.0 15.0 0.4 1.7 15.0 11.3 15.0 14.9 11.4 15.0 14.9 13.1 15.0 15.0 15.0 15.0 15.0 15.0 15.0 15.0 15.0 15.0 15.0 15.0 15.0 15.0 15.0 15.0 15.0 15.0 15.0 15.0 15.0 15.0 15.0 15.0 15.0
15.0 15.0 2.2 10.4 14.9 14.5 14.3 13.2 15.0 15.0 15.0 15.0 15.0 15.0 15.0 15.0 15.0 15.0 15.0 15.0 15.0 15.0 15.0 15.0 15.0 15.0 15.0 15.0 15.0 15.0 15.0 15.0 15.0 15.0 15.0 15.0 15.0 15.0
15.0 13.7 15.0 4.7 15.0 15.0 14.1 13.6 15.0 15.0 15.0 15.0 15.0 15.0 15.0 15.0 15.0 15.0 15.0 15.0 15.0 15.0 15.0 15.0 15.0 15.0 15.0 15.0 15.0 15.0 15.0 15.0 15.0 15.0 15.0 15.0 15.0 15.0
0.3 5.5 8.7 0.1 0.2 15.0 2.9 0.1 0.1 1.1 8.2 14.8 14.7 15.0 15.0 15.0 15.0 15.0 3.1 0.7 0.3 10.2 15.0 15.0 15.0 15.0 15.0 15.0 15.0 15.0 15.0 15.0 15.0 14.7 15.0 15.0 12.9 15.0
1.8 2.4 5.2 2.6 2.2 5.0 0.2 0.2 0.1 0.2 1.6 0.2 1.1 6.2 15.0 15.0 15.0 15.0 15.0 0.0 0.0 0.1 15.0 14.9 15.0 15.0 0.1 15.0 15.0 15.0 15.0 15.0 15.0 15.0 15.0 12.1 15.0 14.5
0.4 0.4 12.4 14.9 14.1 15.0 14.9 0.2 2.0 15.0 13.0 13.3 0.6 1.5 1.4 0.7 11.2 1.0 15.0 3.7 0.0 0.1 15.0 0.2 0.0 3.9 0.0 1.7 15.0 15.0 15.0 15.0 15.0 15.0 15.0 15.0 15.0 13.2
0.2 4.5 7.6 15.0 15.0 15.0 15.0 15.0 15.0 12.5 1.4 0.1 0.1 0.1 0.1 0.2 15.0 14.2 4.9 0.3 15.0 0.1 15.0 14.0 0.0 0.1 0.0 2.1 15.0 15.0 15.0 15.0 13.9 11.6 1.0 15.0 11.5 7.6
2.8 4.4 9.0 15.0 15.0 15.0 15.0 15.0 14.6 0.1 0.1 0.0 0.0 0.0 0.1 0.1 0.1 0.1 0.2 1.6 0.3 0.2 12.4 1.5 0.0 0.0 0.0 0.1 8.1 15.0 13.9 15.0 0.5 0.1 0.2 0.2 0.1 2.6
15.0 15.0 15.0 15.0 15.0 15.0 15.0 15.0 15.0 15.0 0.1 0.0 0.0 0.1 0.1 0.0 0.1 0.1 0.1 0.1 0.1 0.3 5.3 0.0 0.0 0.1 0.4 15.0 1.1 2.5 6.5 4.3 15.0 5.9 0.1 0.3 0.2 0.1
15.0 15.0 15.0 15.0 0.1 0.1 0.1 0.1 0.1 0.2 0.1 0.1 0.1 0.1 0.1 0.1 0.1 0.3 0.3 0.2 0.2 0.2 0.1 9.0 1.9 7.1 1.4 15.0 5.7 9.6 10.3 12.6 15.0 8.4 0.8 0.3 0.4 2.6
5.0 0.1 15.0 15.0 0.2 0.1 0.1 0.1 0.1 0.1 0.1 0.1 0.1 0.1 0.1 0.1 0.1 0.2 12.0 10.6 1.4 15.0 14.1 11.2 0.9 1.3 1.3 4.8 15.0 15.0 15.0 15.0 4.5 9.0 4.0 0.4 8.4 15.0
0.2 0.1 0.1 0.1 0.2 0.2 0.2 0.1 0.1 0.3 0.1 0.1 0.1 0.2 0.2 0.2 0.2 0.1 0.3 5.8 4.8 7.0 1.4 0.1 0.1 0.2 0.2 1.5 3.1 15.0 15.0 15.0 15.0 15.0 15.0 15.0 15.0 15.0
0.1 0.1 0.1 0.1 0.1 0.1 0.0 0.2 0.5 0.2 0.2 0.8 0.2 0.3 4.9 3.9 0.5 1.2 1.8 0.2 0.1 0.2 0.2 0.1 0.1 0.1 0.1 0.1 0.1 0.2 15.0 15.0 15.0 15.0 15.0 15.0 15.0 15.0
0.1 0.1 0.1 0.1 0.1 0.1 0.1 0.2 0.1 1.4 7.9 14.7 9.4 4.7 0.4 0.4 0.9 0.4 0.4 3.3 0.5 0.4 0.3 0.4 0.2 0.1 0.1 0.4 0.2 0.6 15.0 15.0 15.0 15.0 15.0 15.0 15.0 15.0
0.0 0.0 0.0 0.0 0.0 0.1 0.2 0.9 0.1 0.2 1.1 15.0 15.0 8.3 1.0 0.3 0.3 1.4 0.4 1.4 3.2 1.3 0.6 0.4 0.1 0.1 0.1 0.3 0.7 15.0 15.0 15.0 15.0 15.0 15.0 15.0 15.0 15.0
0.0 0.0 0.0 0.0 0.0 0.0 0.0 0.1 0.1 0.1 14.6 15.0 15.0 15.0 9.7 10.0 13.8 2.5 3.1 5.2 2.7 1.3 0.9 0.3 0.3 0.3 1.3 15.0 15.0 15.0 15.0 15.0 15.0 15.0 15.0 15.0 15.0 15.0